Regional Weather Roundup
Issued by NWS

Home | Current Version | Previous Version | Text Only | Print | Product List | Glossary On
Versions: 1 2 3 4 5 6 7 8 9 10 11 12 13 14 15 16 17 18 19 20 21 22 23 24 25 26 27 28 29 30 31 32 33 34 35 36 37 38 39 40 41 42 43 44 45 46 47 48 49 50
000
ASUS43 KDMX 230306
RWRIA

WEATHER ROUNDUP FOR IOWA
NATIONAL WEATHER SERVICE DES MOINES IA
900 PM CST THU FEB 22 2018

NOTE: "FAIR" INDICATES FEW OR NO CLOUDS BELOW 12,000 FEET WITH NO
SIGNIFICANT WEATHER AND/OR OBSTRUCTIONS TO VISIBILITY.

* - THESE STATIONS ARE NOT NWS STATIONS...THUS NOT UNDER NWS
QUALITY CONTROL.  THEY ALSO DO NOT REPORT WEATHER SUCH
AS PRECIPITATION OR FOG.

IAZ001>003-012>014-020>022-031>034-043>046-230400-
   NORTHWEST IOWA

CITY           SKY/WX    TMP DP  RH WIND       PRES   REMARKS
CARROLL *      MIX PCPN  32  32 100 S8        30.19R WCI  25
CHEROKEE *     LGT SNOW  28  28 100 S3        30.19R VSB 1
DENISON *      LGT RAIN  30  30 100 CALM      30.20S
LE MARS *      LGT SNOW  27  27 100 SW3       30.19R
ORANGE CITY *  LGT SNOW  27  27 100 CALM      30.18R VSB 1
SHELDON *      LGT SNOW  27  27 100 CALM      30.16S
SIOUX CITY     LGT SNOW  26  26 100 W3        30.20R VSB 1
SPENCER        LGT SNOW  29  27  92 SW5       30.17S VSB 3/4 WCI  24
STORM LAKE *   LGT SNOW  28  28 100 S10       30.17R VSB 1   WCI  19
$$

IAZ055>058-069>071-079>083-090>094-230400-
   SOUTHWEST IOWA

CITY           SKY/WX    TMP DP  RH WIND       PRES   REMARKS
ATLANTIC *     CLOUDY    32  32 100 S8        30.19S FOG     WCI  25
AUDUBON *      MIX PCPN  32  30  93 S3        30.19S
CLARINDA *     MIX PCPN  32  32 100 SW5       30.22S WCI  27
COUNCIL BLFS * LGT RAIN  30  30 100 S5        30.18F WCI  25
CRESTON *      CLOUDY    32  32 100 S10       30.18R FOG     WCI  24
HARLAN  *      CLOUDY    32  32 100 SW7       30.22S FOG     WCI  26
LAMONI         FOG       32  31  96 SE8       30.15F VSB 3/4 WCI  25
RED OAK *      LGT RAIN  32  32 100 SW5       30.20S WCI  27
SHENANDOAH *   CLOUDY    32  32 100 SW5       30.20F FOG     WCI  27
$$

IAZ047>049-059>061-072>074-084-230400-
   CENTRAL IOWA

CITY           SKY/WX    TMP DP  RH WIND       PRES   REMARKS
AMES           MIX PCPN  32  31  96 SE12G20   30.17F FOG     WCI  23
ANKENY *       CLOUDY    32  32 100 SE12G18   30.18F FOG     WCI  23
BOONE *        FOG       32  32 100 MISG      30.15F VSB 1
CHARITON *     FOG       32  32 100 SE10      30.18R VSB 1/4 WCI  24
DES MOINES     FRZ DRZL  33  32  96 SE12      30.17F VSB 1   WCI  24
GRINNELL*      LGT RAIN  33  32  97 E12G17    30.20F WCI  24
KNOXVILLE *    FOG       34  34 100 E8        30.16F VSB<1/4 WCI  27
MARSHALLTOWN   FRZ RAIN  33  33 100 SE13      30.18F FOG     WCI  24
NEWTON *       MIX PCPN  34  32  93 SE13      30.18F VSB 1   WCI  25
PELLA *        FOG       33  32  98 SE7       30.19F VSB 1/2 WCI  27
PERRY *        DRIZZLE   33  32  99 SE8       30.16F WCI  25
$$

IAZ004>006-015-016-023>025-035-036-230400-
   NORTH CENTRAL IOWA

CITY           SKY/WX    TMP DP  RH WIND       PRES   REMARKS
ALGONA *       CLOUDY    32 N/A N/A SE13      30.17R FOG     WCI  22
CLARION *      CLOUDY    32  32 100 SE20G31   30.15S FOG     WCI  20
ESTHERVILLE    SNOW      29  29 100 S7        30.16S VSB 1/2 WCI  22
FORT DODGE *   MIX PCPN  32  31  96 SE9       30.15F FOG     WCI  24
MASON CITY     FRZ RAIN  31  29  92 SE22G28   30.17F FOG     WCI  18
FOREST CITY *  CLOUDY    32  32 100 SE13G18   30.15F FOG     WCI  22
WEBSTER CITY * MIX PCPN  32  32 100 SE18      30.13F WCI  20
IOWA FALLS *   LGT SNOW  33  32  96 SE15      30.17F WCI  23
$$

IAZ007>011-017>019-026>030-037>042-050>054-066-230400-
   NORTHEAST IOWA

CITY           SKY/WX    TMP DP  RH WIND       PRES   REMARKS
CEDAR RAPIDS   DRZL/FOG  34  34 100 E12       30.22F VSB 1   WCI  25
CHARLES CITY * CLOUDY    32  32 100 E17       30.19F FOG     WCI  21
CLINTON *      CLOUDY    35  33  92 E14       30.28F WCI  26
DECORAH *      CLOUDY    30  30 100 E14G21    30.23F FOG     WCI  20
DUBUQUE        CLOUDY    32  30  92 E12       30.27F FOG     WCI  23
MONTICELLO *   CLOUDY    34  34 100 E10       30.27S FOG     WCI  26
OELWEIN *      CLOUDY    32  32 100 E16G23    30.22F FOG     WCI  21
WATERLOO       MIX PCPN  32  32 100 SE16      30.20F FOG     WCI  21
$$

IAZ064-065-067-068-078-230400-
   EAST CENTRAL IOWA

CITY           SKY/WX    TMP DP  RH WIND       PRES   REMARKS
DAVENPORT      CLOUDY    37  35  92 E10       30.29R FOG     WCI  30
IOWA CITY      CLOUDY    36  34  92 E6        30.25F FOG     WCI  31
MT. PLEASANT * FOG       36  36 100 SE12      30.23S VSB 3/4 WCI  27
MUSCATINE *    CLOUDY    37  37 100 E7        30.26F FOG     WCI  32
QUAD CITIES    FOG       37  37 100 E12       30.27S VSB 1   WCI  29
$$

IAZ062-063-075>077-085>089-095>099-230400-
   SOUTHEAST IOWA

CITY           SKY/WX    TMP DP  RH WIND       PRES   REMARKS
BURLINGTON     FOG       37  37 100 E7        30.24F VSB 1/2 WCI  32
FAIRFIELD *    CLOUDY    36  36 100 E10       30.21F FOG     WCI  28
FORT MADISON * FOG       37  37 100 E9        30.24F VSB 1/2 WCI  31
KEOKUK *       MIX PCPN  37  37 100 E9        30.23F VSB 1/4 WCI  31
OSKALOOSA *    FOG       34  33  99 SE9       30.20F VSB 1/2 WCI  26
OTTUMWA        FOG       35  35 100 E7        30.20F VSB 1/2 WCI  29
WASHINGTON *   FOG       36  36 100 E13       30.23F VSB 1/2 WCI  27
$$

ABBREVIATIONS USED IN REMARKS
   TC - TEMPERATURES IN CELSIUS
  WCI - WIND CHILL INDEX
   HX - HEAT INDEX
  VSB - VISIBILITY
$$





USA.gov is the U.S. government's official web portal to all federal, state and local government web resources and services.